This is the latest recevied weather packets stored in our database for station/object WD7OO. If no packets are shown the sender has not sent any weather packets the latest 10 day(s).
| Time | Temp. | Humidity | Pressure | Rain* | Wind** | Luminosity | Snow |
|---|---|---|---|---|---|---|---|
| 1777380697 | 12.22° C | 88% | 1011.3 hPa | 0 mm | - | 32 W/m² | - |
| 1777379785 | 12.22° C | 88% | 1011 hPa | 0 mm | - | 43 W/m² | - |
| 1777379481 | 12.22° C | 88% | 1011 hPa | 0 mm | - | 49 W/m² | - |
| 1777379176 | 12.22° C | 89% | 1010.8 hPa | 0 mm | - | 44 W/m² | - |
| 1777378872 | 12.22° C | 88% | 1010.8 hPa | 0 mm | - | 36 W/m² | - |
| 1777378568 | 12.22° C | 88% | 1010.7 hPa | 0 mm | - | 25 W/m² | - |
| 1777378264 | 12.22° C | 89% | 1010.4 hPa | 0 mm | - | 16 W/m² | - |
| 1777377963 | 12.22° C | 88% | 1010.1 hPa | 0 mm | - | 16 W/m² | - |
| 1777377358 | 12.22° C | 88% | 1010 hPa | 0 mm | - | 18 W/m² | - |
| 1777377055 | 12.22° C | 88% | 1009.9 hPa | 0 mm | - | 16 W/m² | - |
| 1777376752 | 12.22° C | 88% | 1009.6 hPa | 0 mm | - | 15 W/m² | - |
| 1777376144 | 12.78° C | 88% | 1009.6 hPa | 0 mm | - | 6 W/m² | - |
| 1777375534 | 12.78° C | 88% | 1009 hPa | 0 mm | - | 5 W/m² | - |
| 1777375230 | 12.78° C | 88% | 1009.2 hPa | 0 mm | - | 6 W/m² | - |
| 1777374622 | 12.78° C | 89% | 1009 hPa | 0 mm | - | 1 W/m² | - |
| 1777374318 | 12.78° C | 89% | 1009 hPa | 0 mm | - | 1 W/m² | - |
| 1777373712 | 13.33° C | 90% | 1008.6 hPa | 0 mm | - | 0 W/m² | - |
| 1777372493 | 14.44° C | 90% | 1007.9 hPa | 0 mm | - | 0 W/m² | - |
| 1777372191 | 14.44° C | 90% | 1007.6 hPa | 0 mm | - | 0 W/m² | - |
| 1777371887 | 14.44° C | 90% | 1007.6 hPa | 0 mm | - | 0 W/m² | - |
| 1777371584 | 14.44° C | 90% | 1007.5 hPa | 0 mm | - | 0 W/m² | - |
| 1777371280 | 14.44° C | 89% | 1007.4 hPa | 0 mm | - | 0 W/m² | - |
| 1777370977 | 14.44° C | 89% | 1007.3 hPa | 0 mm | - | 0 W/m² | - |
| 1777370672 | 15° C | 90% | 1007.1 hPa | 0 mm | - | 0 W/m² | - |
| 1777370369 | 15° C | 91% | 1007.2 hPa | 0 mm | - | 0 W/m² | - |
* Rain latest hour (hover to see other rain measurements)
** Current wind speed in m/s (hover to see current wind gust speed)